Latest Coastal Weather Observations for Adele Island

IDW60701

Issued at 11:03 am WST Saturday 1 October 2016 (issued every 10 minutes, with the page automatically refreshed every 10 minutes)

About coastal observations | Map of coastal stations | Coastal observations for WA | Marine services | Other Formats
Station Details ID: 200735 Name: ADELE ISLAND Lat: -15.51 Lon: 123.16 Height: 4.6 m
Data from the previous 72 hours. | See also: Recent months at Adele Island
Date/Time
WST
Temp
°C
Wind Pressure Rain since
9am
mm
Weather Cloud Vis
km
Sea
Height
m
Swell
Dir  Spd
kts
Gust
kts
hPa Trend Height
m
Period
s
Dir
01/11:00am - WNW 8 10 1011.3 - - - - - - - - -
01/10:30am - NW 8 9 1011.5 - - - - - - - - -
01/10:00am - WNW 8 10 1011.7 - - - - - - - - -
01/09:30am - WNW 8 9 1011.8 - - - - - - - - -
01/09:00am - WNW 8 10 1011.9 - - - - - - - - -
01/08:30am - WNW 8 10 1011.7 - - - - - - - - -
01/08:00am - WNW 8 10 1011.4 - - - - - - - - -
01/07:30am - WNW 7 9 1011.2 - - - - - - - - -
01/07:00am - WNW 7 9 1010.8 - - - - - - - - -
01/06:30am - WNW 7 9 1010.3 - - - - - - - - -
01/06:00am - W 8 10 1009.8 - - - - - - - - -
01/05:30am - W 10 11 1009.5 - - - - - - - - -
01/05:00am - W 10 13 1009.1 - - - - - - - - -
01/04:30am - W 11 12 1008.9 - - - - - - - - -
01/04:00am - W 10 12 1008.6 - - - - - - - - -
01/03:30am - WNW 11 13 1008.5 - - - - - - - - -
01/03:00am - W 11 13 1008.3 - - - - - - - - -
01/02:30am - W 13 15 1008.4 - - - - - - - - -
01/02:00am - W 13 17 1008.4 - - - - - - - - -
01/01:30am - W 13 16 1008.7 - - - - - - - - -
01/01:00am - WNW 13 16 1008.8 - - - - - - - - -
01/12:30am - WNW 13 15 1009.1 - - - - - - - - -
01/12:00am - WNW 11 15 1009.2 - - - - - - - - -
 
Date/Time
WST
Temp
°C
Wind Pressure Rain since
9am
mm
Weather Cloud Vis
km
Sea
Height
m
Swell
Dir  Spd
kts
Gust
kts
hPa Trend Height
m
Period
s
Dir
30/11:30pm - WNW 12 14 1009.3 - - - - - - - - -
30/11:00pm - NW 11 13 1009.4 - - - - - - - - -
30/10:30pm - WNW 10 12 1009.5 - - - - - - - - -
30/10:00pm - WNW 9 11 1009.6 - - - - - - - - -
30/09:30pm - WNW 10 11 1009.6 - - - - - - - - -
30/09:00pm - WNW 10 11 1009.6 - - - - - - - - -
30/08:30pm - NW 9 10 1009.4 - - - - - - - - -
30/08:00pm - NW 8 9 1009.0 - - - - - - - - -
30/07:30pm - WNW 8 9 1008.7 - - - - - - - - -
30/07:00pm - NW 7 9 1008.2 - - - - - - - - -
30/06:30pm - NW 7 9 1007.7 - - - - - - - - -
30/06:00pm - W 9 10 1007.5 - - - - - - - - -
30/05:30pm - W 9 11 1007.0 - - - - - - - - -
30/05:00pm - WNW 8 9 1006.7 - - - - - - - - -
30/04:30pm - WNW 9 11 1006.5 - - - - - - - - -
30/04:00pm - W 9 11 1006.4 - - - - - - - - -
30/03:30pm - W 9 11 1006.3 - - - - - - - - -
30/03:00pm - WNW 8 10 1006.2 - - - - - - - - -
30/02:30pm - WNW 8 10 1006.5 - - - - - - - - -
30/02:00pm - WNW 7 9 1006.5 - - - - - - - - -
30/01:30pm - W 7 9 1006.8 - - - - - - - - -
30/01:00pm - WSW 9 11 1007.2 - - - - - - - - -
30/12:30pm - WSW 10 11 1007.5 - - - - - - - - -
30/12:00pm - WSW 10 12 1008.0 - - - - - - - - -
30/11:30am - W 9 11 1008.3 - - - - - - - - -
30/11:00am - WSW 9 11 1008.6 - - - - - - - - -
30/10:30am - WSW 10 11 1009.1 - - - - - - - - -
30/10:00am - WSW 10 12 1009.4 - - - - - - - - -
30/09:30am - WSW 11 13 1009.7 - - - - - - - - -
30/09:00am - WSW 11 13 1009.8 - - - - - - - - -
30/08:30am - WSW 9 11 1009.8 - - - - - - - - -
30/08:00am - WSW 7 9 1009.6 - - - - - - - - -
30/07:30am - WSW 8 10 1009.5 - - - - - - - - -
30/07:00am - W 7 9 1009.3 - - - - - - - - -
30/06:30am - WSW 8 9 1009.1 - - - - - - - - -
30/06:00am - WSW 10 11 1009.0 - - - - - - - - -
30/05:30am - SW 10 12 1008.8 - - - - - - - - -
30/05:00am - WSW 10 11 1008.6 - - - - - - - - -
30/04:30am - WSW 9 11 1008.3 - - - - - - - - -
30/04:00am - WSW 11 12 1008.2 - - - - - - - - -
30/03:30am - SW 11 13 1008.2 - - - - - - - - -
30/03:00am - WSW 12 14 1008.1 - - - - - - - - -
30/02:30am - WSW 12 15 1008.1 - - - - - - - - -
30/02:00am - WSW 10 11 1008.1 - - - - - - - - -
30/01:30am - WSW 11 13 1008.4 - - - - - - - - -
30/01:00am - WSW 10 12 1008.5 - - - - - - - - -
30/12:30am - SW 11 13 1008.8 - - - - - - - - -
30/12:00am - SW 11 13 1008.9 - - - - - - - - -
 
Date/Time
WST
Temp
°C
Wind Pressure Rain since
9am
mm
Weather Cloud Vis
km
Sea
Height
m
Swell
Dir  Spd
kts
Gust
kts
hPa Trend Height
m
Period
s
Dir
29/11:30pm - WSW 11 14 1009.2 - - - - - - - - -
29/11:00pm - WSW 12 15 1009.3 - - - - - - - - -
29/10:30pm - W 13 16 1009.4 - - - - - - - - -
29/10:00pm - W 12 15 1009.3 - - - - - - - - -
29/09:30pm - W 10 13 1009.4 - - - - - - - - -
29/09:00pm - W 9 11 1009.2 - - - - - - - - -
29/08:30pm - W 9 9 1009.1 - - - - - - - - -
29/08:00pm - WNW 7 8 1009.0 - - - - - - - - -
29/07:30pm - WNW 6 7 1008.7 - - - - - - - - -
29/07:00pm - WSW 5 6 1008.4 - - - - - - - - -
29/06:30pm - SW 6 7 1008.1 - - - - - - - - -
29/06:00pm - SW 8 8 1007.7 - - - - - - - - -
29/05:30pm - SSW 8 9 1007.3 - - - - - - - - -
29/05:00pm - S 9 11 1007.1 - - - - - - - - -
29/04:30pm - S 10 11 1007.1 - - - - - - - - -
29/04:00pm - SSW 11 12 1007.1 - - - - - - - - -
29/03:30pm - SSW 11 13 1007.2 - - - - - - - - -
29/03:00pm - SSW 11 13 1007.4 - - - - - - - - -
29/02:30pm - SSW 12 15 1007.5 - - - - - - - - -
29/02:00pm - SSW 12 15 1007.7 - - - - - - - - -
29/01:30pm - SSW 12 15 1008.0 - - - - - - - - -
29/01:00pm - S 11 16 1008.4 - - - - - - - - -
29/12:30pm - S 10 13 1008.8 - - - - - - - - -
29/12:00pm - S 11 15 1009.2 - - - - - - - - -
29/11:30am - S 12 17 1009.8 - - - - - - - - -
29/11:00am - S 11 17 1010.2 - - - - - - - - -
29/10:30am - SE 6 9 1010.5 - - - - - - - - -
29/10:00am - ESE 8 11 1010.8 - - - - - - - - -
29/09:30am - SSE 8 12 1010.9 - - - - - - - - -
29/09:00am - SSE 8 11 1011.0 - - - - - - - - -
29/08:30am - SE 7 9 1011.1 - - - - - - - - -
29/08:00am - SSE 8 9 1011.1 - - - - - - - - -
29/07:30am - SE 8 9 1011.0 - - - - - - - - -
29/07:00am - SE 8 10 1010.6 - - - - - - - - -
29/06:30am - SSE 7 8 1010.3 - - - - - - - - -
29/06:00am - SSE 7 7 1010.1 - - - - - - - - -
29/05:30am - SE 7 8 1009.7 - - - - - - - - -
29/05:00am - SE 7 8 1009.6 - - - - - - - - -
29/04:30am - SSE 7 8 1009.3 - - - - - - - - -
29/04:00am - SSE 9 11 1009.1 - - - - - - - - -
29/03:30am - S 9 10 1008.9 - - - - - - - - -
29/03:00am - S 9 10 1008.8 - - - - - - - - -
29/02:30am - S 9 11 1009.0 - - - - - - - - -
29/02:00am - S 10 13 1009.0 - - - - - - - - -
29/01:30am - S 12 15 1009.4 - - - - - - - - -
29/01:00am - S 12 14 1009.6 - - - - - - - - -
29/12:30am - SSW 13 18 1009.8 - - - - - - - - -
29/12:00am - SW 14 17 1009.7 - - - - - - - - -
 
Date/Time
WST
Temp
°C
Wind Pressure Rain since
9am
mm
Weather Cloud Vis
km
Sea
Height
m
Swell
Dir  Spd
kts
Gust
kts
hPa Trend Height
m
Period
s
Dir
28/11:30pm - SW 14 19 1010.0 - - - - - - - - -
28/11:00pm - SW 16 19 1010.3 - - - - - - - - -
28/10:30pm - SW 17 20 1010.6 - - - - - - - - -
28/10:00pm - WSW 14 17 1010.7 - - - - - - - - -
28/09:30pm - WSW 13 16 1010.7 - - - - - - - - -
28/09:00pm - WSW 12 15 1010.7 - - - - - - - - -
28/08:30pm - WSW 12 15 1010.6 - - - - - - - - -
28/08:00pm - WSW 11 13 1010.4 - - - - - - - - -
28/07:30pm - WSW 10 12 1010.2 - - - - - - - - -
28/07:00pm - WSW 11 13 1010.1 - - - - - - - - -
28/06:30pm - WSW 11 13 1009.9 - - - - - - - - -
28/06:00pm - WSW 9 11 1009.7 - - - - - - - - -
28/05:30pm - WSW 9 10 1009.4 - - - - - - - - -
28/05:00pm - WSW 6 8 1008.9 - - - - - - - - -
28/04:30pm - W 6 7 1008.6 - - - - - - - - -
28/04:00pm - WSW 7 8 1008.6 - - - - - - - - -
28/03:30pm - SW 8 10 1008.6 - - - - - - - - -
28/03:00pm - SW 8 11 1008.8 - - - - - - - - -
28/02:30pm - WSW 9 11 1009.0 - - - - - - - - -
28/02:00pm - SW 9 11 1009.3 - - - - - - - - -
28/01:30pm - WSW 10 13 1009.7 - - - - - - - - -
28/01:00pm - SSW 10 13 1010.1 - - - - - - - - -
28/12:30pm - S 10 14 1010.5 - - - - - - - - -
28/12:00pm - S 12 16 1011.1 - - - - - - - - -
28/11:30am - S 13 19 1011.6 - - - - - - - - -

Other Formats:

Comma delimited format used in spreadsheet applications
http://www.bom.gov.au/fwo/IDW60701/IDW60701.94210.axf

JavaScript Object Notation format (JSON) in row-major order
http://www.bom.gov.au/fwo/IDW60701/IDW60701.94210.json